Flag for Canada Weather past 2 weeks in Strathcona County, Alberta, Canada

Now
48 °F

Sunny.


Feels Like: 43 °F
Forecast: 36 / 41 °F
Wind: 12 mph from West

Location: Edmonton Municipal

Current Time: Jan 25, 2015 at 4:17:35 PM

Latest Report: Jan 25, 2015 at 3:00 PM


Visibility: 9 mi

Pressure: 29.79 "Hg

Humidity: 50%

Dew point: 30 °F

Location of Strathcona CountyLocation

Historic Weather in Strathcona County — Graph

°F

Strathcona County temperature yesterday

Maximum temperature yesterday: 43 °F (at 5:00 AM)
Minimum temperature yesterday: 37 °F (at 12:00 AM)
Average temperature yesterday: 40 °F

Past Weeks' High & Low Weather Summary

 TemperatureHumidityPressure
High50 °F (Jan 22, 3:00 PM)100% (Jan 15, 10:48 AM)30.45 "Hg (Jan 15, 10:48 AM)
Low-9 °F (Jan 11, 9:00 AM)43% (Jan 22, 3:00 PM)29.43 "Hg (Jan 16, 10:58 AM)
Average28 °F70%29.97 "Hg
* Reported Jan 10 3:00 PM — Jan 25 3:00 PM, Strathcona County, Weather by CustomWeather, © 2014

Note: Actual official high and low records may vary slightly from our data, if they occured in-between our weather recording intervals... More about our weather records

Advertising

Strathcona County weather history for previous 24 hours

 ConditionsComfort  
Time TempWeatherWind HumidityBarometerVisibility
3:00 PM
Jan 25
48 °FSunny.12 mph50%29.79 "Hg9 mi
2:00 PM48 °FSunny.9 mph54%29.77 "Hg9 mi
1:00 PM46 °FSunny.9 mph57%29.78 "Hg9 mi
12:00 PM45 °FSunny.8 mph57%29.77 "Hg9 mi
11:00 AM43 °FSunny.9 mph61%29.75 "Hg9 mi
10:00 AM41 °FPassing clouds.6 mph66%29.74 "Hg9 mi
9:00 AM39 °FSunny.6 mph70%29.71 "Hg9 mi
8:00 AM37 °FClear.8 mph75%29.69 "Hg9 mi
7:00 AM37 °FClear.8 mph75%29.69 "Hg9 mi
6:00 AM37 °FPassing clouds.10 mph70%29.70 "Hg9 mi
5:00 AM39 °FPassing clouds.7 mph65%29.73 "Hg9 mi
4:00 AM39 °FPassing clouds.13 mph61%29.74 "Hg9 mi
3:00 AM39 °FOvercast.10 mph61%29.77 "Hg9 mi
2:00 AM41 °FLight rain. Overcast.15 mph57%29.83 "Hg9 mi
1:00 AM39 °FOvercast.8 mph61%29.86 "Hg9 mi
12:00 AM39 °FOvercast.9 mph61%29.88 "Hg9 mi
11:00 PM
Jan 24
39 °FPassing clouds.8 mph61%29.92 "Hg9 mi
10:00 PM37 °FOvercast.9 mph65%29.96 "Hg9 mi
9:00 PM37 °FClear.6 mph60%29.96 "Hg9 mi
8:00 PM37 °FClear.2 mph60%29.97 "Hg9 mi
7:00 PM37 °FClear.2 mph60%29.98 "Hg9 mi
6:00 PM37 °FClear.6 mph60%30.01 "Hg9 mi
5:00 PM41 °FSunny.6 mph53%30.04 "Hg9 mi
4:00 PM43 °FSunny.12 mph49%30.02 "Hg9 mi
Weather by CustomWeather, © 2014

See weather overviewHow to use our weather pages